Regional Weather Roundup
Issued by NWS

Home | Current Version | Previous Version | Graphics & Text | Print | Product List | Glossary On
Versions: 1 2 3 4 5 6 7 8 9 10 11 12 13 14 15 16 17 18 19 20 21 22 23 24 25 26 27 28 29 30 31 32 33 34 35 36 37 38 39 40 41 42 43 44 45 46 47 48 49 50
000
ASUS43 KMPX 171301
RWRMN
WEATHER ROUNDUP FOR MINNESOTA
NATIONAL WEATHER SERVICE TWIN CITIES/CHANHASSEN MN
700 AM CST TUE JAN 17 2017


NOTE: "FAIR" INDICATES FEW OR NO CLOUDS BELOW 12,000 FEET WITH NO
SIGNIFICANT WEATHER AND/OR OBSTRUCTIONS TO VISIBILITY. N/A MEANS
CURRENT SKY AND/OR WEATHER CONDITIONS ARE NOT AVAILABLE.

MNZ060>063-068>070-171400-
   Twin Cities Metro

CITY           SKY/WX    TMP DP  RH WIND       PRES   REMARKS
TWIN CITIES    FRZ DRZL  31  28  89 NW7       29.94R FOG     WCI  24
ST PAUL        CLOUDY    31  31 100 NW5       29.95R WCI  26
CRYSTAL        CLOUDY    31  24  75 NW7       29.94S WCI  24
BLAINE         FRZ DRZL  32  30  93 N5        29.94R WCI  27
LAKEVILLE      CLOUDY    30  30 100 NW8       29.93R FOG     WCI  23
EDEN PRAIRIE   CLOUDY    32  28  85 N6        29.93S WCI  26
SOUTH ST PAUL  CLOUDY    32  32  99 N7        29.94R WCI  26
LAKE ELMO      CLOUDY    32  32 100 NW6       29.94R WCI  26
$$
MNZ001>005-007-008-013>017-022>024-027-028-171400-
   Northwest Minnesota

CITY           SKY/WX    TMP DP  RH WIND       PRES   REMARKS
BEMIDJI        CLOUDY    -3  -6  84 CALM      29.92F
HALLOCK        CLOUDY     3   0  85 SE10      29.92F WCI -12
ROSEAU         CLOUDY     1  -4  78 S3        29.92S
WARROAD        CLOUDY     1  -2  85 SW5       29.92S WCI  -8
THIEF RVR FALL CLOUDY     1  -2  87 S6        29.95F WCI -10
CROOKSTON      CLOUDY     1  -2  85 S8        29.96F WCI -12
FOSSTON        CLOUDY     0  -2  92 SW3       29.95R FOG
DETROIT LAKES  CLOUDY     3   0  85 CALM      29.96F
MOORHEAD       CLOUDY     0  -6  78 SE7       29.99F WCI -13
PARK RAPIDS    CLOUDY    -4 -11  72 CALM      29.94R HAZE
MAHNOMEN       FAIR       1  -3  85 SW3       29.95S
$$
MNZ006-009>011-018-025>026-171400-
   North Central Minnesota

CITY           SKY/WX    TMP DP  RH WIND       PRES   REMARKS
BAUDETTE       CLOUDY    -2  -7  79 NW8       29.92R WCI -17
FLAG ISLAND    CLOUDY     1  -2  85 SE5       29.90F WCI  -8
INTL FALLS     CLOUDY    -6 -12  75 CALM      29.93F
WASKISH        CLOUDY    -4  -8  84 CALM      29.92F
BIG FORK       CLOUDY    -2  -8  78 CALM      29.94R
LONGVILLE      CLOUDY    -4  -8  84 CALM      29.95R
GRAND RAPIDS   CLOUDY     3   0  87 CALM      29.95S FOG
CRANE LAKE     CLOUDY    -6  -9  84 CALM      29.95F
ORR            CLOUDY     0  -6  78 CALM      29.90F
COOK           CLOUDY    -6  -9  84 CALM      29.94S
WALKER         FAIR       0  -4  85 CALM      29.93F
$$
MNZ012-019>021-037-171400-
   Northeast Minnesota

CITY           SKY/WX    TMP DP  RH WIND       PRES   REMARKS
DULUTH         FOG       19  19 100 CALM      29.92S VSB 1/8
ELY            FOG       -4  -8  84 CALM      29.93S VSB 1/2
HIBBING        FOG       -3  -5  90 CALM      29.93S VSB<1/4
EVELETH        HAZE       0  -5  80 CALM      29.94S VSB 1/4
DULUTH HARBOR  CLOUDY    25  19  80 CALM      29.97R
TWO HARBORS    CLOUDY    27  21  80 N5        29.93R HAZE    WCI  21
SILVER BAY     CLOUDY    21  21 100 CALM      29.92S FOG
GRAND MARAIS     N/A     20  17  88 N3        29.96F
G MARAIS ARPRT CLOUDY    12   9  85 CALM      29.90F FOG
$$
MNZ029>031-032-039>041-046>048-054>057-064-171400-
   West Central Minnesota

CITY           SKY/WX    TMP DP  RH WIND       PRES   REMARKS
FERGUS FALLS   CLOUDY     1   0  92 CALM      30.05R
WHEATON        CLOUDY     9   5  85 CALM      30.02S
MORRIS         CLOUDY     3   0  85 CALM      29.99F
ALEXANDRIA     CLOUDY     3   0  87 W7        29.97R FOG     WCI  -9
ELBOW LAKE     FAIR       1  -2  88 CALM      29.99S
WADENA         LGT SNOW   0  -4  85 CALM      29.95F
GLENWOOD       CLOUDY    12  10  92 NW5       29.97S WCI   4
APPLETON       CLOUDY     3   0  85 W7        30.01F WCI  -9
ORTONVILLE     CLOUDY     3   0  85 CALM      30.00F
MADISON        CLOUDY     7   3  85 W3        30.02S
WILLMAR        CLOUDY    23  21  93 CALM      29.99R FOG
$$
MNZ033>034-036-042>043-049>051-058-059-171400-
   Central Minnesota

CITY           SKY/WX    TMP DP  RH WIND       PRES   REMARKS
ST CLOUD       CLOUDY    27  26  96 NW5       29.96S FOG     WCI  22
SAUK CENTRE    FOG       21  20  98 CALM      29.97R VSB 1/4
PAYNESVILLE    CLOUDY    27  27 100 CALM      29.97S FOG
AITKIN         CLOUDY     0  -6  78 CALM      29.94S
PINE RIVER     CLOUDY    -2  -6  84 CALM      29.99R FOG
BRAINERD       CLOUDY     3   1  91 CALM      29.96S FOG
STAPLES        CLOUDY    -2  -6  84 CALM      29.96S FOG
LONG PRAIRIE   FAIR      14  12  92 CALM      29.95F FOG
LITTLE FALLS   FOG       25  23  93 CALM      29.97S VSB 1
LITCHFIELD     CLOUDY    30  30 100 NW3       29.97S FOG
BUFFALO        CLOUDY    28  25  86 NW6       29.97S WCI  22
MAPLE LAKE     FOG       28  28  98 NW5       29.97S VSB 1   WCI  23
HUTCHINSON     CLOUDY    31  30  94 NW6       29.97F FOG     WCI  25
$$
MNZ037-044-045-052-053-171400-
   East Central Minnesota

CITY           SKY/WX    TMP DP  RH WIND       PRES   REMARKS
PRINCETON      CLOUDY    25  21  86 NW5       29.96S WCI  19
MORA           CLOUDY    21  18  86 NW6       29.97S WCI  14
CAMBRIDGE      PTCLDY    27  18  69 NW3       29.94S
RUSH CITY      CLOUDY    25  19  80 NW5       29.95R WCI  19
MOOSE LAKE     CLOUDY    10   9  92 CALM      29.93S FOG
HINCKLEY       CLOUDY    27  21  80 NW6       29.94S WCI  20
CLOQUET        CLOUDY    12  10  92 NW5       29.93S WCI   4
MCGREGOR       CLOUDY     1   0  92 CALM      29.95F
$$
MNZ071>073-080-081-089-090-097-098-171400-
   Southwest Minnesota

CITY           SKY/WX    TMP DP  RH WIND       PRES   REMARKS
MONTEVIDEO     CLOUDY    18  14  86 N8        30.03R WCI   7
GRANITE FALLS  CLOUDY    20  16  86 W8        30.02R WCI  10
CANBY            N/A     11   8  86 CALM      30.02R
MARSHALL       CLOUDY    19  14  81 NW12      30.00S WCI   7
REDWOOD FALLS  CLOUDY    23  19  85 NW8       29.98S WCI  14
OLIVIA         CLOUDY    23  21  93 NW8       29.98S FOG     WCI  14
PIPESTONE      FOG       18  16  93 CALM      29.97R VSB 1/4
WINDOM         CLOUDY    23  23 100 NW6       29.97R FOG     WCI  16
WORTHINGTON    CLOUDY    26  24  92 NW9       29.97  FOG     WCI  17
JACKSON        CLOUDY    25  25 100 NW8       29.97R FOG     WCI  16
TRACY          CLOUDY    22  19  87 NW7       29.99S WCI  13
SLAYTON        FOG       23  23  99 NW3       29.97F VSB 3/4
$$
MNZ065>067-074>077-082>085-091>093-171400-
   South Central Minnesota

CITY           SKY/WX    TMP DP  RH WIND       PRES   REMARKS
MANKATO        MOCLDY    30  28  92 NW10      29.95S WCI  21
NEW ULM        CLOUDY    25  25 100 NW12      29.97S FOG     WCI  14
ST JAMES       CLOUDY    25  25 100 W10       29.99R FOG     WCI  15
FAIRMONT       FOG       28  27  96 NW13      29.96S VSB 1/2 WCI  17
GLENCOE        CLOUDY    31  28  90 N6        29.95S WCI  25
FARIBAULT      LGT SNOW  30  30 100 NW6       29.93R WCI  24
OWATONNA       LGT SNOW  30  28  93 NW3       29.93R VSB 3/4
WASECA         CLOUDY    30  28  93 NW5       29.95R FOG     WCI  25
ALBERT LEA     CLOUDY    30  30 100 NW3       29.92R FOG
$$
MNZ078>079-086>088-094>096-171400-
   Southeast Minnesota

CITY           SKY/WX    TMP DP  RH WIND       PRES   REMARKS
ROCHESTER      MIX PCPN  32  32 100 NW8       29.88R FOG     WCI  25
RED WING       MIX PCPN  34  32  93 CALM      29.91R
STANTON        CLOUDY    33  31  94 NW5       29.91S FOG     WCI  28
DODGE CENTER   CLOUDY    30  30 100 CALM      29.89S FOG
WINONA         MIX PCPN  34  32  93 NW3       29.89F
AUSTIN         CLOUDY    30  30 100 N6        29.89S FOG     WCI  24
PRESTON        CLOUDY    31  31  97 N5        29.87S FOG     WCI  27
$$
ABBREVIATIONS USED IN REMARKS
   TC - TEMPERATURES IN CELSIUS
  WCI - WIND CHILL INDEX
   HX - HEAT INDEX
  VSB - VISIBILITY
$$



USA.gov is the U.S. government's official web portal to all federal, state and local government web resources and services.